Showing default

GLOBALSTAR M026, 25873

Orbit data source: Space-Track

GLOBALSTAR M026, 25873 is a payload satellite owned by Globalstar (US) in LEO that was launched on Sun, 25 Jul 1999 UTC via a DELTA 7420-10C launch vehicle from the Air Force Eastern Test Range (AFETR). Payload-class satellites include a variety of spacecraft equipped with specific instruments for various scientific and technological missions. These include communications satellites like Starlink; space stations such as the ISS; scientific satellites like the Hubble; Earth observation satellites from companies like Planet Labs, Umbra, and HawkEye 360; GPS; miniature CubeSats for education and research; and military/defense satellites.

Loading next visibility...
Identifier
25873, 1999-041B
Orbit
LEO
Country
Flag of USUS / GLOB
Related business
Manufacturer
SS/Loral
Mission
Non-operational Commercial Communications
Bus & Motor
LS-400, LS-400 AOCS
Mass
450 kg wet, 380 kg dry
Launch date (UTC)
1999-07-25 (27 years ago)
Launch vehicle
DELTA 7420-10C
Launch site
Air Force Eastern Test Range (AFETR)
Object type
Payload
Rocket body
Debris
Shape & HBR
Box + 2 Pan, 6.0 m
Radar Cross Section
5.587 m², Large (>1 m²)

Expand to show TLE details & history
Last TLE update: 9 hours ago

TLE from 9 hours ago
0 GLOBALSTAR M026
1 25873U 99041B   26122.20728602 -.00000091  00000-0 -99028-3 0  9991
2 25873  51.9984 178.1097 0001147  80.1074 313.1404 11.06839617183818
Epoch: 2026-05-02T04:58Z
TLE epoch observation values (Epoch: 2026-05-02T04:58:29.512Z)
Latitude
25.65008°
Longitude
-94.71151°
Altitude
2,127.188 km
Speed
6.85 km/s
True Right ascension
13h 20m 09s
True Declination
25° 32' 16"
Sunlit
Object was in full shadow at epoch
Visualization orbit readout
Latitude
Unknown
Longitude
Unknown
Altitude
Unknown
Speed
Unknown
Apparent Right ascension
Unknown
Apparent Declination
Unknown
Sunlit
N/A
Visualization observer readout
Local Sidereal Time
21:52:41
Azimuth
Unknown
Elevation
Unknown
Doppler factor
Unknown
Orbital elements
Apogee altitude
2,128.285 km
Perigee altitude
2,126.334 km
Semi-major axis
8,505.446 km
Eccentricity
0.00011
Inclination
51.9984°
RAAN
178.1097°
Arg. of periapsis
80.1074°
True anomaly
313.13081°
Mean anomaly
313.1404°
Eccentric anomaly
313.1356°
Mean motion
2.76693 °/min
Orbital period
130.11 mins
BSTAR
-0.00099028
Loading maneuver chart data...
Computing Atmospheric mass density...
Loading historical data...
Loading historical data...
Loading historical data...
Loading historical data...
Loading historical data...
Loading historical data...
Loading historical data...
Other satellites on launch #41 in the year 1999 (1999-07-25 UTC)

Documentation

Showing up to 5 results
|